• In Belarus
  • List of Countries
  • For 7 days
  • Water Temperature
  • Satellite Maps
  • Weather Map
  • Weather Widgets
  • user-avatar
    Login

    Hourly Weather Elbasan

    Today, 20 October, Friday

    Time Temperature Precipitation Wind Pressure Humidity
    00:00 +16°C° 0 mm 1 mps 737 mmHg 76%
    01:00 +16°C° 0 mm 1 mps 737 mmHg 77%
    02:00 +16°C° 0 mm 1 mps 737 mmHg 77%
    03:00 +15°C° 0 mm 1 mps 737 mmHg 77%
    04:00 +15°C° 0 mm 1 mps 737 mmHg 77%
    05:00 +16°C° 0 mm 1 mps 737 mmHg 75%
    06:00 +16°C° 0 mm 1 mps 737 mmHg 73%
    07:00 +19°C° 0 mm 1 mps 737 mmHg 66%
    08:00 +20°C° 0 mm 1 mps 738 mmHg 60%
    09:00 +22°C° 0 mm 1 mps 738 mmHg 55%
    10:00 +24°C° 0 mm 1 mps 738 mmHg 49%
    11:00 +24°C° 0 mm 1 mps 738 mmHg 46%
    12:00 +25°C° 0 mm 2 mps 738 mmHg 44%
    13:00 +25°C° 0 mm 2 mps 738 mmHg 42%
    14:00 +25°C° 0 mm 2 mps 737 mmHg 46%
    15:00 +24°C° 0 mm 2 mps 737 mmHg 50%
    16:00 +23°C° 0 mm 2 mps 737 mmHg 55%
    17:00 +20°C° 0 mm 2 mps 737 mmHg 63%
    18:00 +20°C° 0 mm 1 mps 738 mmHg 72%
    19:00 +18°C° 0 mm 1 mps 738 mmHg 80%
    20:00 +16°C° 0 mm 1 mps 738 mmHg 81%
    21:00 +16°C° 0 mm 1 mps 738 mmHg 83%
    22:00 +16°C° 0 mm 1 mps 738 mmHg 84%
    23:00 +16°C° 0 mm 1 mps 738 mmHg 84%

    Tomorrow, 21 October, Saturday

    Time Temperature Precipitation Wind Pressure Humidity
    00:00 +15°C° 0 mm 1 mps 738 mmHg 84%
    01:00 +15°C° 0 mm 1 mps 738 mmHg 84%
    02:00 +15°C° 0 mm 1 mps 738 mmHg 83%
    03:00 +15°C° 0 mm 1 mps 738 mmHg 83%
    04:00 +14°C° 0 mm 1 mps 738 mmHg 82%
    05:00 +15°C° 0 mm 1 mps 738 mmHg 79%
    06:00 +15°C° 0 mm 1 mps 738 mmHg 75%
    07:00 +16°C° 0 mm 1 mps 738 mmHg 72%
    08:00 +19°C° 0 mm 1 mps 738 mmHg 64%
    09:00 +21°C° 0 mm 1 mps 738 mmHg 55%
    10:00 +23°C° 0 mm 1 mps 738 mmHg 46%
    11:00 +24°C° 0 mm 2 mps 738 mmHg 45%
    12:00 +24°C° 0 mm 2 mps 738 mmHg 43%
    13:00 +25°C° 0 mm 3 mps 737 mmHg 41%
    14:00 +24°C° 0 mm 3 mps 737 mmHg 46%
    15:00 +22°C° 0 mm 3 mps 737 mmHg 51%
    16:00 +21°C° 0 mm 3 mps 737 mmHg 56%
    17:00 +19°C° 0 mm 2 mps 737 mmHg 65%
    18:00 +18°C° 0 mm 2 mps 737 mmHg 75%
    19:00 +16°C° 0 mm 1 mps 737 mmHg 84%
    20:00 +15°C° 0 mm 1 mps 737 mmHg 84%
    21:00 +15°C° 0 mm 1 mps 737 mmHg 85%
    22:00 +15°C° 0 mm 1 mps 737 mmHg 86%
    23:00 +14°C° 0 mm 1 mps 737 mmHg 85%

    Day after tomorrow, 22 October, Sunday

    Time Temperature Precipitation Wind Pressure Humidity
    00:00 +14°C° 0 mm 1 mps 737 mmHg 84%
    01:00 +14°C° 0 mm 1 mps 737 mmHg 83%
    02:00 +13°C° 0 mm 1 mps 736 mmHg 81%
    03:00 +13°C° 0 mm 1 mps 736 mmHg 79%
    04:00 +13°C° 0 mm 1 mps 736 mmHg 77%
    05:00 +14°C° 0 mm 1 mps 736 mmHg 73%
    06:00 +14°C° 0 mm 1 mps 736 mmHg 70%
    07:00 +15°C° 0 mm 1 mps 736 mmHg 67%
    08:00 +18°C° 0 mm 1 mps 736 mmHg 61%
    09:00 +20°C° 0 mm 1 mps 736 mmHg 56%
    10:00 +22°C° 0 mm 1 mps 736 mmHg 51%
    11:00 +23°C° 0 mm 2 mps 736 mmHg 51%
    12:00 +23°C° 0 mm 2 mps 735 mmHg 51%
    13:00 +24°C° 0 mm 3 mps 735 mmHg 51%
    14:00 +23°C° 0 mm 2 mps 734 mmHg 55%
    15:00 +21°C° 0 mm 2 mps 734 mmHg 59%
    16:00 +21°C° 0 mm 2 mps 734 mmHg 63%
    17:00 +19°C° 0 mm 2 mps 734 mmHg 70%
    18:00 +19°C° 0 mm 1 mps 734 mmHg 78%
    19:00 +16°C° 0 mm 1 mps 734 mmHg 85%
    20:00 +16°C° 0 mm 1 mps 733 mmHg 83%
    21:00 +16°C° 0 mm 2 mps 733 mmHg 82%
    22:00 +16°C° 0 mm 2 mps 733 mmHg 80%
    23:00 +16°C° 0.2 mm 2 mps 733 mmHg 79%

    23 October, Monday

    Time Temperature Precipitation Wind Pressure Humidity
    00:00 +16°C° 0.2 mm 2 mps 732 mmHg 79%
    01:00 +16°C° 0.2 mm 2 mps 732 mmHg 78%
    02:00 +16°C° 0.4 mm 2 mps 731 mmHg 77%
    03:00 +15°C° 0.4 mm 2 mps 731 mmHg 77%
    04:00 +15°C° 0.4 mm 2 mps 730 mmHg 77%
    05:00 +15°C° 0.2 mm 2 mps 730 mmHg 78%
    06:00 +15°C° 0.2 mm 2 mps 730 mmHg 78%
    07:00 +16°C° 0.2 mm 2 mps 730 mmHg 79%
    08:00 +16°C° 0.3 mm 3 mps 729 mmHg 76%
    09:00 +17°C° 0.3 mm 3 mps 729 mmHg 74%
    10:00 +18°C° 0.3 mm 3 mps 729 mmHg 71%
    11:00 +18°C° 0.6 mm 4 mps 728 mmHg 69%
    12:00 +18°C° 0.6 mm 4 mps 728 mmHg 67%
    13:00 +18°C° 0.6 mm 4 mps 727 mmHg 66%
    14:00 +17°C° 1.1 mm 3 mps 727 mmHg 69%
    15:00 +16°C° 1.1 mm 3 mps 727 mmHg 73%
    16:00 +15°C° 1.1 mm 2 mps 727 mmHg 77%
    17:00 +15°C° 1.3 mm 2 mps 727 mmHg 81%
    18:00 +14°C° 1.3 mm 2 mps 727 mmHg 84%
    19:00 +14°C° 1.3 mm 2 mps 727 mmHg 87%
    20:00 +13°C° 1.1 mm 2 mps 727 mmHg 87%
    21:00 +13°C° 1.1 mm 2 mps 727 mmHg 86%
    22:00 +12°C° 1.1 mm 3 mps 727 mmHg 86%
    23:00 +12°C° 0.9 mm 3 mps 726 mmHg 84%

    24 October, Tuesday

    Time Temperature Precipitation Wind Pressure Humidity
    00:00 +11°C° 0.9 mm 3 mps 726 mmHg 83%
    01:00 +11°C° 0.9 mm 3 mps 726 mmHg 82%
    02:00 +11°C° 0.3 mm 3 mps 726 mmHg 81%
    03:00 +11°C° 0.3 mm 3 mps 726 mmHg 81%
    04:00 +10°C° 0.3 mm 3 mps 726 mmHg 80%
    05:00 +10°C° 0.3 mm 3 mps 726 mmHg 79%
    06:00 +10°C° 0.3 mm 3 mps 726 mmHg 79%
    07:00 +10°C° 0.3 mm 3 mps 726 mmHg 79%
    08:00 +11°C° 0.2 mm 3 mps 727 mmHg 74%
    09:00 +12°C° 0.2 mm 3 mps 727 mmHg 70%
    10:00 +12°C° 0.2 mm 3 mps 727 mmHg 65%
    11:00 +12°C° 0.4 mm 3 mps 726 mmHg 66%
    12:00 +12°C° 0.4 mm 3 mps 726 mmHg 67%
    13:00 +12°C° 0.4 mm 3 mps 726 mmHg 68%
    14:00 +12°C° 0.4 mm 3 mps 726 mmHg 70%
    15:00 +12°C° 0.4 mm 3 mps 726 mmHg 72%
    16:00 +12°C° 0.4 mm 3 mps 726 mmHg 73%
    17:00 +11°C° 0.2 mm 3 mps 727 mmHg 76%
    18:00 +11°C° 0.2 mm 3 mps 727 mmHg 78%
    19:00 +10°C° 0.2 mm 3 mps 727 mmHg 81%
    20:00 +10°C° 0.2 mm 3 mps 727 mmHg 81%
    21:00 +10°C° 0.2 mm 3 mps 727 mmHg 82%
    22:00 +10°C° 0.2 mm 3 mps 728 mmHg 82%
    23:00 +10°C° 0.4 mm 3 mps 728 mmHg 82%

    25 October, Wednesday

    Time Temperature Precipitation Wind Pressure Humidity
    00:00 +10°C° 0.4 mm 3 mps 728 mmHg 83%
    01:00 +10°C° 0.4 mm 3 mps 728 mmHg 83%
    02:00 +10°C° 0.4 mm 3 mps 728 mmHg 83%
    03:00 +11°C° 0.4 mm 3 mps 728 mmHg 83%
    04:00 +11°C° 0.4 mm 3 mps 728 mmHg 83%
    05:00 +11°C° 0.2 mm 3 mps 729 mmHg 82%
    06:00 +12°C° 0.2 mm 3 mps 729 mmHg 81%
    07:00 +12°C° 0.2 mm 3 mps 730 mmHg 81%
    08:00 +13°C° 0.2 mm 4 mps 730 mmHg 74%
    09:00 +15°C° 0.2 mm 4 mps 731 mmHg 68%
    10:00 +16°C° 0.2 mm 5 mps 732 mmHg 62%
    11:00 +16°C° 0.1 mm 5 mps 732 mmHg 61%
    12:00 +16°C° 0.1 mm 5 mps 732 mmHg 60%
    13:00 +16°C° 0.1 mm 5 mps 733 mmHg 59%
    14:00 +16°C° 0 mm 5 mps 733 mmHg 61%
    15:00 +15°C° 0 mm 4 mps 734 mmHg 62%
    16:00 +15°C° 0 mm 4 mps 734 mmHg 64%
    17:00 +14°C° 0 mm 4 mps 735 mmHg 68%
    18:00 +13°C° 0 mm 4 mps 735 mmHg 72%
    19:00 +12°C° 0 mm 3 mps 736 mmHg 76%
    20:00 +12°C° 0 mm 4 mps 737 mmHg 76%
    21:00 +12°C° 0 mm 4 mps 737 mmHg 76%
    22:00 +11°C° 0 mm 4 mps 738 mmHg 76%
    23:00 +11°C° 0 mm 4 mps 738 mmHg 77%
    Show more